This is the latest recevied weather packets stored in our database for station/object K8GLX. If no packets are shown the sender has not sent any weather packets the latest 10 day(s).
| Time | Temp. | Humidity | Pressure | Rain* | Wind** | Luminosity | Snow |
|---|---|---|---|---|---|---|---|
| 1777823535 | 13.33° C | 40% | 1015 hPa | 0 mm | - | 724 W/m² | - |
| 1777823229 | 12.78° C | 39% | 1014.9 hPa | 0 mm | - | 717 W/m² | - |
| 1777823062 | 12.78° C | 40% | 1015 hPa | 0 mm | - | 712 W/m² | - |
| 1777822629 | 12.78° C | 40% | 1015 hPa | 0 mm | - | 705 W/m² | - |
| 1777822334 | 12.78° C | 39% | 1015.2 hPa | 0 mm | - | 697 W/m² | - |
| 1777822029 | 12.78° C | 40% | 1015.4 hPa | 0 mm | - | 690 W/m² | - |
| 1777821735 | 12.22° C | 39% | 1015.3 hPa | 0 mm | - | 686 W/m² | - |
| 1777821553 | 12.78° C | 39% | 1015.2 hPa | 0 mm | - | 677 W/m² | - |
| 1777821262 | 12.22° C | 39% | 1015.3 hPa | 0 mm | - | 668 W/m² | - |
| 1777820829 | 12.22° C | 41% | 1015.4 hPa | 0 mm | - | 665 W/m² | - |
| 1777820632 | 11.67° C | 40% | 1015.3 hPa | 0 mm | - | 651 W/m² | - |
| 1777820345 | 12.22° C | 40% | 1014.8 hPa | 0 mm | - | 639 W/m² | - |
| 1777820062 | 11.67° C | 41% | 1015.2 hPa | 0 mm | - | 633 W/m² | - |
| 1777819629 | 11.67° C | 41% | 1015.4 hPa | 0 mm | - | 623 W/m² | - |
| 1777819462 | 11.67° C | 41% | 1015.3 hPa | 0 mm | - | 606 W/m² | - |
| 1777819029 | 11.11° C | 41% | 1015.3 hPa | 0 mm | - | 593 W/m² | - |
| 1777818734 | 11.11° C | 41% | 1015.3 hPa | 0 mm | - | 579 W/m² | - |
| 1777818429 | 10.56° C | 41% | 1015.2 hPa | 0 mm | - | 564 W/m² | - |
| 1777818134 | 10.56° C | 41% | 1015.4 hPa | 0 mm | - | 555 W/m² | - |
| 1777817829 | 10.56° C | 41% | 1015.3 hPa | 0 mm | - | 540 W/m² | - |
| 1777817662 | 10.56° C | 41% | 1015.4 hPa | 0 mm | - | 525 W/m² | - |
| 1777817229 | 10.56° C | 41% | 1015.6 hPa | 0 mm | - | 507 W/m² | - |
| 1777816935 | 10.56° C | 41% | 1015.6 hPa | 0 mm | - | 491 W/m² | - |
| 1777816628 | 10° C | 41% | 1015.7 hPa | 0 mm | - | 475 W/m² | - |
| 1777816334 | 10° C | 41% | 1015.8 hPa | 0 mm | - | 464 W/m² | - |
* Rain latest hour (hover to see other rain measurements)
** Current wind speed in m/s (hover to see current wind gust speed)